When you browse on this site, cookies collect data to enhance your experience and personalize the content and advertising you see.
Visit our Privacy Policy to learn more. By continuing to use the site, you agree to this use of cookies and data.
  • In United Kingdom
  • List of Countries
  • For 7 days
  • Water Temperature
  • Weather Map
  • Weather Widgets
  • user-avatar
    Login

    Hourly Weather Bumbesti-Jiu

    Today, 13 November, Wednesday

    Time Temperature Precipitation Wind Pressure Humidity
    00:00 +13°C° 0 mm 5 mps 726 mmHg 78%
    01:00 +13°C° 0 mm 5 mps 726 mmHg 76%
    02:00 +13°C° 0 mm 5 mps 726 mmHg 74%
    03:00 +13°C° 0 mm 5 mps 725 mmHg 75%
    04:00 +13°C° 0 mm 5 mps 725 mmHg 75%
    05:00 +13°C° 0 mm 5 mps 724 mmHg 76%
    06:00 +13°C° 0.5 mm 5 mps 724 mmHg 78%
    07:00 +13°C° 0.5 mm 6 mps 724 mmHg 79%
    08:00 +13°C° 0.5 mm 6 mps 724 mmHg 81%
    09:00 +13°C° 0.5 mm 6 mps 724 mmHg 81%
    10:00 +14°C° 0.5 mm 5 mps 724 mmHg 82%
    11:00 +14°C° 0.5 mm 5 mps 724 mmHg 82%
    12:00 +14°C° 0.1 mm 5 mps 724 mmHg 82%
    13:00 +15°C° 0.1 mm 5 mps 724 mmHg 81%
    14:00 +15°C° 0.1 mm 5 mps 724 mmHg 81%
    15:00 +15°C° 0.1 mm 5 mps 724 mmHg 83%
    16:00 +14°C° 0.1 mm 4 mps 724 mmHg 86%
    17:00 +14°C° 0.1 mm 4 mps 723 mmHg 88%
    18:00 +14°C° 0.2 mm 4 mps 724 mmHg 87%
    19:00 +14°C° 0.2 mm 4 mps 724 mmHg 86%
    20:00 +14°C° 0.2 mm 4 mps 724 mmHg 85%
    21:00 +14°C° 0.1 mm 4 mps 724 mmHg 85%
    22:00 +14°C° 0.1 mm 3 mps 725 mmHg 86%
    23:00 +14°C° 0.1 mm 3 mps 725 mmHg 87%

    Tomorrow, 14 November, Thursday

    Time Temperature Precipitation Wind Pressure Humidity
    00:00 +14°C° 0.1 mm 3 mps 725 mmHg 87%
    01:00 +15°C° 0.1 mm 2 mps 725 mmHg 87%
    02:00 +14°C° 0.1 mm 2 mps 725 mmHg 87%
    03:00 +14°C° 0.7 mm 2 mps 725 mmHg 89%
    04:00 +14°C° 0.7 mm 2 mps 725 mmHg 91%
    05:00 +14°C° 0.7 mm 2 mps 725 mmHg 92%
    06:00 +14°C° 0.5 mm 2 mps 725 mmHg 92%
    07:00 +14°C° 0.5 mm 2 mps 726 mmHg 92%
    08:00 +14°C° 0.5 mm 2 mps 726 mmHg 91%
    09:00 +15°C° 0.4 mm 2 mps 726 mmHg 89%
    10:00 +15°C° 0.4 mm 2 mps 726 mmHg 87%
    11:00 +16°C° 0.4 mm 3 mps 727 mmHg 84%
    12:00 +16°C° 0.4 mm 3 mps 727 mmHg 81%
    13:00 +16°C° 0.4 mm 2 mps 727 mmHg 79%
    14:00 +16°C° 0.4 mm 2 mps 727 mmHg 76%
    15:00 +15°C° 0.1 mm 2 mps 727 mmHg 79%
    16:00 +15°C° 0.1 mm 2 mps 727 mmHg 83%
    17:00 +14°C° 0.1 mm 1 mps 727 mmHg 86%
    18:00 +14°C° 0 mm 1 mps 727 mmHg 87%
    19:00 +14°C° 0 mm 1 mps 727 mmHg 88%
    20:00 +14°C° 0 mm 1 mps 728 mmHg 89%
    21:00 +13°C° 0.2 mm 1 mps 728 mmHg 90%
    22:00 +13°C° 0.2 mm 1 mps 728 mmHg 91%
    23:00 +13°C° 0.2 mm 1 mps 728 mmHg 93%

    Day after tomorrow, 15 November, Friday

    Time Temperature Precipitation Wind Pressure Humidity
    00:00 +13°C° 0.4 mm 1 mps 728 mmHg 93%
    01:00 +13°C° 0.4 mm 1 mps 729 mmHg 93%
    02:00 +13°C° 0.4 mm 1 mps 729 mmHg 94%
    03:00 +13°C° 0.3 mm 1 mps 729 mmHg 94%
    04:00 +13°C° 0.3 mm 1 mps 729 mmHg 94%
    05:00 +12°C° 0.3 mm 1 mps 729 mmHg 94%
    06:00 +12°C° 0 mm 1 mps 729 mmHg 94%
    07:00 +12°C° 0 mm 1 mps 729 mmHg 93%
    08:00 +12°C° 0 mm 1 mps 730 mmHg 92%
    09:00 +13°C° 0 mm 1 mps 730 mmHg 88%
    10:00 +13°C° 0 mm 1 mps 730 mmHg 86%
    11:00 +14°C° 0 mm 1 mps 730 mmHg 84%
    12:00 +14°C° 0 mm 1 mps 730 mmHg 84%
    13:00 +14°C° 0 mm 1 mps 730 mmHg 83%
    14:00 +14°C° 0 mm 1 mps 730 mmHg 82%
    15:00 +14°C° 0 mm 1 mps 730 mmHg 85%
    16:00 +13°C° 0 mm 1 mps 730 mmHg 88%
    17:00 +12°C° 0 mm 1 mps 730 mmHg 91%
    18:00 +12°C° 0 mm 1 mps 731 mmHg 91%
    19:00 +12°C° 0 mm 1 mps 731 mmHg 92%
    20:00 +12°C° 0 mm 1 mps 731 mmHg 92%
    21:00 +12°C° 0 mm 1 mps 732 mmHg 92%
    22:00 +12°C° 0 mm 1 mps 732 mmHg 92%
    23:00 +12°C° 0 mm 1 mps 732 mmHg 92%

    16 November, Saturday

    Time Temperature Precipitation Wind Pressure Humidity
    00:00 +12°C° 0 mm 1 mps 732 mmHg 92%
    01:00 +12°C° 0 mm 1 mps 732 mmHg 92%
    02:00 +12°C° 0 mm 1 mps 732 mmHg 92%
    03:00 +12°C° 0 mm 1 mps 733 mmHg 91%
    04:00 +12°C° 0 mm 1 mps 733 mmHg 91%
    05:00 +12°C° 0 mm 1 mps 733 mmHg 91%
    06:00 +12°C° 0 mm 1 mps 733 mmHg 91%
    07:00 +12°C° 0 mm 1 mps 733 mmHg 90%
    08:00 +12°C° 0 mm 1 mps 734 mmHg 90%
    09:00 +13°C° 0 mm 1 mps 734 mmHg 85%
    10:00 +14°C° 0 mm 1 mps 734 mmHg 80%
    11:00 +15°C° 0 mm 1 mps 734 mmHg 75%
    12:00 +16°C° 0 mm 1 mps 734 mmHg 74%
    13:00 +16°C° 0 mm 1 mps 733 mmHg 72%
    14:00 +18°C° 0 mm 1 mps 733 mmHg 71%
    15:00 +15°C° 0 mm 1 mps 733 mmHg 76%
    16:00 +14°C° 0 mm 1 mps 732 mmHg 81%
    17:00 +12°C° 0 mm 0 mps 732 mmHg 86%
    18:00 +13°C° 0 mm 1 mps 732 mmHg 87%
    19:00 +12°C° 0 mm 1 mps 732 mmHg 89%
    20:00 +12°C° 0 mm 1 mps 732 mmHg 91%
    21:00 +12°C° 0 mm 1 mps 732 mmHg 91%
    22:00 +12°C° 0 mm 2 mps 732 mmHg 92%
    23:00 +12°C° 0 mm 2 mps 732 mmHg 92%

    17 November, Sunday

    Time Temperature Precipitation Wind Pressure Humidity
    00:00 +12°C° 0 mm 2 mps 732 mmHg 92%
    01:00 +13°C° 0 mm 2 mps 732 mmHg 91%
    02:00 +13°C° 0 mm 2 mps 732 mmHg 90%
    03:00 +13°C° 0 mm 2 mps 732 mmHg 90%
    04:00 +13°C° 0 mm 2 mps 732 mmHg 89%
    05:00 +12°C° 0 mm 2 mps 731 mmHg 89%
    06:00 +12°C° 0 mm 2 mps 731 mmHg 90%
    07:00 +11°C° 0 mm 3 mps 731 mmHg 90%
    08:00 +11°C° 0 mm 3 mps 731 mmHg 90%
    09:00 +11°C° 0 mm 3 mps 731 mmHg 89%
    10:00 +11°C° 0 mm 3 mps 732 mmHg 87%
    11:00 +11°C° 0 mm 3 mps 732 mmHg 85%
    12:00 +11°C° 0 mm 3 mps 731 mmHg 83%
    13:00 +12°C° 0 mm 3 mps 731 mmHg 80%
    14:00 +12°C° 0 mm 3 mps 731 mmHg 78%
    15:00 +11°C° 0 mm 3 mps 731 mmHg 79%
    16:00 +10°C° 0 mm 3 mps 731 mmHg 81%
    17:00 +10°C° 0 mm 2 mps 731 mmHg 82%
    18:00 +9°C° 0 mm 3 mps 731 mmHg 84%
    19:00 +9°C° 0 mm 3 mps 731 mmHg 85%
    20:00 +8°C° 0 mm 3 mps 731 mmHg 86%
    21:00 +9°C° 0 mm 3 mps 731 mmHg 86%
    22:00 +9°C° 0 mm 3 mps 732 mmHg 85%
    23:00 +10°C° 0 mm 3 mps 732 mmHg 84%

    18 November, Monday

    Time Temperature Precipitation Wind Pressure Humidity
    00:00 +10°C° 0 mm 3 mps 731 mmHg 84%
    01:00 +10°C° 0 mm 3 mps 731 mmHg 84%
    02:00 +10°C° 0 mm 3 mps 731 mmHg 84%
    03:00 +10°C° 0 mm 3 mps 731 mmHg 84%
    04:00 +10°C° 0 mm 3 mps 731 mmHg 85%
    05:00 +10°C° 0 mm 3 mps 731 mmHg 85%
    06:00 +10°C° 0 mm 3 mps 731 mmHg 83%
    07:00 +10°C° 0 mm 3 mps 731 mmHg 82%
    08:00 +10°C° 0 mm 3 mps 731 mmHg 80%
    09:00 +10°C° 0 mm 3 mps 732 mmHg 80%
    10:00 +10°C° 0 mm 3 mps 732 mmHg 80%
    11:00 +10°C° 0 mm 3 mps 732 mmHg 80%
    12:00 +12°C° 0 mm 2 mps 732 mmHg 78%
    13:00 +12°C° 0 mm 2 mps 732 mmHg 76%
    14:00 +12°C° 0 mm 2 mps 732 mmHg 75%
    15:00 +12°C° 0 mm 2 mps 732 mmHg 77%
    16:00 +11°C° 0 mm 1 mps 732 mmHg 79%
    17:00 +11°C° 0 mm 1 mps 732 mmHg 80%
    18:00 +10°C° 0 mm 1 mps 732 mmHg 81%
    19:00 +10°C° 0 mm 1 mps 732 mmHg 82%
    20:00 +10°C° 0 mm 1 mps 732 mmHg 83%
    21:00 +10°C° 0 mm 1 mps 733 mmHg 83%
    22:00 +10°C° 0 mm 1 mps 733 mmHg 82%
    23:00 +9°C° 0 mm 2 mps 733 mmHg 82%
    Show more